This demonstration page uses our WeatherBlox Daily Observations layout. Learn more.

36.17497, -115.13722

Hourly Observations for September 26, 2018

Temp ( °F °C ) Dew Point ( °F °C ) Humidity (%) Winds ( mph kmh ) Pressure ( in mb ) Visibility ( mi km ) Precip ( " mm )
12:53 am 00:53 Clear 77 25 32 0 19 19 NW 5 7 29.91 1013 10 16.09344 0 0
1:53 am 01:53 Clear 78 25.6 26 -3.3 15 15 N 10 17 29.91 1013 10 16.09344 0 0
2:53 am 02:53 Clear 78 25.6 26 -3.3 15 15 ESE 8 13 29.94 1014 10 16.09344 0 0
3:53 am 03:53 Clear 78 25.6 24 -4.4 13 13 NNE 8 13 29.94 1014 10 16.09344 0 0
4:53 am 04:53 Clear 76 24.4 24 -4.4 14 14 NW 6 9 29.97 1015 10 16.09344 0 0
5:53 am 05:53 Clear 73 22.8 25 -3.9 17 17 W 8 13 30 1016 10 16.09344 0 0
6:53 am 06:53 Sunny 71 21.7 26 -3.3 19 19 NW 7 11 30.03 1017 10 16.09344 0 0
7:53 am 07:53 Sunny 75 23.9 26 -3.3 16 16 N 5 7 30.03 1017 10 16.09344 0 0
8:53 am 08:53 Sunny 79 26.1 28 -2.2 15 15 WSW 6 9 30.06 1018 10 16.09344 0 0
9:53 am 09:53 Sunny 82 27.8 24 -4.4 12 12 N 3 6 30.06 1018 10 16.09344 0 0
10:53 am 10:53 Sunny 84 28.9 22 -5.6 10 10 S 5 7 30.06 1018 10 16.09344 0 0
11:53 am 11:53 Sunny 87 30.6 20 -6.7 8 8 N 5 7 30.03 1017 10 16.09344 0 0
12:53 pm 12:53 Sunny 89 31.7 18 -7.8 7 7 undefined N/A 30 1016 10 16.09344 0 0
1:53 pm 13:53 Sunny 92 33.3 19 -7.2 7 7 Calm 29.97 1015 10 16.09344 0 0
2:53 pm 14:53 Sunny 93 33.9 19 -7.2 7 7 Calm 29.97 1015 10 16.09344 0 0
3:53 pm 15:53 Sunny 94 34.4 20 -6.7 7 7 Calm 29.94 1014 10 16.09344 0 0
4:53 pm 16:53 Sunny 94 34.4 21 -6.1 7 7 Calm 29.91 1013 10 16.09344 0 0
5:53 pm 17:53 Sunny 93 33.9 21 -6.1 7 7 Calm 29.91 1013 10 16.09344 0 0
6:53 pm 18:53 Clear 90 32.2 21 -6.1 8 8 E 3 6 29.91 1013 10 16.09344 0 0
7:53 pm 19:53 Clear 88 31.1 25 -3.9 10 10 E 5 7 29.91 1013 10 16.09344 0 0
8:53 pm 20:53 Clear 83 28.3 31 -0.6 15 15 WNW 7 11 29.94 1014 10 16.09344 0 0
9:53 pm 21:53 Clear 79 26.1 30 -1.1 17 17 NW 7 11 29.94 1014 10 16.09344 0 0
10:53 pm 22:53 Clear 76 24.4 29 -1.7 18 18 NNW 6 9 29.94 1014 10 16.09344 0 0
11:53 pm 23:53 Clear 75 23.9 30 -1.1 19 19 NNW 7 11 29.94 1014 10 16.09344 0 0

Powered by AerisWeather